Change the Weather History Date:

Saturday, November 19, 2011

  Actual Average Record
Temperature  
Mean Temperature 75 °F 76 °F  
Max Temperature 79 °F 81 °F 85 °F (1954)
Min Temperature 71 °F 71 °F 63 °F (1957)
Degree Days  
Heating Degree Days 0 0  
Month to date heating degree days 0 0  
Since 1 July heating degree days 0 0  
Cooling Degree Days 10 11  
Month to date cooling degree days 198 216  
Year to date cooling degree days 3790 3583  
Growing Degree Days 26 (Base 50)    
Moisture  
Dew Point 69 °F    
Average Humidity 77    
Maximum Humidity 87    
Minimum Humidity 67    
Precipitation  
Precipitation 0.07 in 0.14 in 4.40 in (1973)
Month to date precipitation 4.69 2.87  
Year to date precipitation 39.17 30.26  
Snow  
Snow 0.00 in - - ()
Month to date snowfall 0.0  
Since 1 July snowfall 0.0  
Since 1 September snowfall 0.0  
Snow Depth 0.00 in    
Sea Level Pressure  
Sea Level Pressure 30.07 in    
Wind  
Wind Speed 18 mph (ENE)    
Max Wind Speed 24 mph    
Max Gust Speed 29 mph    
Visibility 9 miles    
Events Rain    
T = Trace of Precipitation, MM = Missing Value Source: NWS Daily Summary

Daily Weather History Graph

Daily Weather History Graph

Search for Another Location

Airport or City:

Trip Planner

Search our weather history database for the weather conditions in past years. The results will help you decide how hot, cold, wet, or windy it might be!

Date:

Astronomy

Nov. 19, 2011 Rise Set
Actual Time 6:51 AM HST 5:53 PM HST
Civil Twilight 6:28 AM HST 6:17 PM HST
Nautical Twilight 6:00 AM HST 6:44 PM HST
Astronomical Twilight 5:34 AM HST 7:11 PM HST
Moon 1:07 AM HST (11/19) 1:39 PM HST (11/19)
Length of Visible Light 11h 49m
Length of Day
11h 01m
Waning Crescent, 36% of the Moon is Illuminated
Nov 19
Waning Crescent
Nov 24
New
Dec 1
First Quarter
Dec 10
Full
Dec 17
Last Quarter

Hourly Weather History & Observations

Time (HST) Temp. Dew Point Humidity Pressure Visibility Wind Dir Wind Speed Gust Speed Precip Events Conditions
12:05 AM 73.4 °F 69.8 °F 88% 30.11 in 3.0 mi NE 9.2 mph - 0.06 in Rain Light Rain
12:34 AM 75.2 °F 69.8 °F 83% 30.10 in 10.0 mi ENE 17.3 mph - 0.06 in   Overcast
12:45 AM 73.4 °F 69.8 °F 88% 30.10 in 10.0 mi ENE 15.0 mph - 0.06 in   Overcast
12:53 AM 73.9 °F 70.0 °F 87% 30.09 in 10.0 mi ENE 16.1 mph - 0.06 in   Mostly Cloudy
1:04 AM 73.4 °F 69.8 °F 88% 30.10 in 10.0 mi ENE 17.3 mph - N/A   Mostly Cloudy
1:53 AM 73.9 °F 70.0 °F 87% 30.08 in 10.0 mi ENE 16.1 mph - N/A   Mostly Cloudy
2:53 AM 75.0 °F 69.1 °F 82% 30.05 in 10.0 mi ENE 17.3 mph - N/A   Mostly Cloudy
3:53 AM 75.0 °F 69.1 °F 82% 30.05 in 10.0 mi East 21.9 mph 27.6 mph N/A   Mostly Cloudy
4:53 AM 73.0 °F 69.1 °F 87% 30.04 in 9.0 mi ENE 18.4 mph 24.2 mph 0.03 in Rain Light Rain
5:53 AM 73.9 °F 69.1 °F 85% 30.05 in 10.0 mi ENE 17.3 mph - 0.00 in   Mostly Cloudy
6:19 AM 73.4 °F 69.8 °F 88% 30.06 in 10.0 mi ENE 18.4 mph 26.5 mph N/A   Mostly Cloudy
6:27 AM 73.4 °F 68.0 °F 83% 30.07 in 10.0 mi ENE 19.6 mph 25.3 mph N/A   Mostly Cloudy
6:53 AM 73.9 °F 70.0 °F 87% 30.07 in 7.0 mi ENE 18.4 mph - N/A   Mostly Cloudy
7:53 AM 75.0 °F 69.1 °F 82% 30.08 in 10.0 mi ENE 17.3 mph - 0.01 in   Scattered Clouds
8:53 AM 73.0 °F 69.1 °F 87% 30.10 in 4.0 mi NE 19.6 mph 27.6 mph 0.00 in Rain Rain
8:58 AM 73.4 °F 69.8 °F 88% 30.10 in 4.0 mi NE 15.0 mph 27.6 mph 0.00 in Rain Light Rain
9:53 AM 75.0 °F 71.1 °F 87% 30.11 in 10.0 mi East 18.4 mph - 0.00 in   Scattered Clouds
10:53 AM 77.0 °F 70.0 °F 79% 30.10 in 10.0 mi East 18.4 mph - 0.00 in   Mostly Cloudy
11:53 AM 77.0 °F 69.1 °F 76% 30.08 in 10.0 mi East 17.3 mph - N/A   Overcast
12:53 PM 78.1 °F 71.1 °F 79% 30.05 in 10.0 mi East 17.3 mph - N/A   Mostly Cloudy
1:42 PM 78.8 °F 69.8 °F 74% 30.04 in 10.0 mi ENE 17.3 mph - N/A   Mostly Cloudy
1:53 PM 79.0 °F 69.1 °F 72% 30.03 in 10.0 mi ENE 19.6 mph - N/A   Overcast
2:46 PM 78.8 °F 66.2 °F 65% 30.03 in 10.0 mi ENE 18.4 mph - N/A   Mostly Cloudy
2:53 PM 78.1 °F 66.9 °F 68% 30.02 in 10.0 mi ENE 17.3 mph - N/A   Mostly Cloudy
3:53 PM 77.0 °F 68.0 °F 74% 30.03 in 10.0 mi ENE 18.4 mph - N/A   Mostly Cloudy
4:15 PM 77.0 °F 68.0 °F 74% 30.04 in 10.0 mi East 17.3 mph - N/A   Mostly Cloudy
4:28 PM 77.0 °F 68.0 °F 74% 30.04 in 10.0 mi East 18.4 mph - N/A   Mostly Cloudy
4:53 PM 75.9 °F 68.0 °F 76% 30.04 in 10.0 mi ENE 19.6 mph - 0.00 in   Overcast
5:53 PM 75.9 °F 68.0 °F 76% 30.05 in 10.0 mi ENE 19.6 mph - N/A   Overcast
6:53 PM 75.0 °F 66.9 °F 76% 30.07 in 10.0 mi ENE 18.4 mph - N/A   Overcast
7:53 PM 75.0 °F 68.0 °F 79% 30.07 in 10.0 mi ENE 18.4 mph - N/A   Mostly Cloudy
8:04 PM 75.2 °F 66.2 °F 73% 30.09 in 10.0 mi ENE 20.7 mph - N/A   Scattered Clouds
8:53 PM 75.0 °F 66.9 °F 76% 30.09 in 10.0 mi ENE 17.3 mph - N/A   Partly Cloudy
9:53 PM 75.0 °F 68.0 °F 79% 30.09 in 10.0 mi ENE 19.6 mph - N/A   Mostly Cloudy
10:53 PM 73.9 °F 69.1 °F 85% 30.09 in 10.0 mi ENE 19.6 mph - 0.00 in   Scattered Clouds
11:53 PM 73.9 °F 68.0 °F 82% 30.08 in 10.0 mi ENE 18.4 mph - N/A   Mostly Cloudy